Regional Weather Roundup
Issued by NWS

Home | Current Version | Previous Version | Graphics & Text | Print | Product List | Glossary On
Versions: 1 2 3 4 5 6 7 8 9 10 11 12 13 14 15 16 17 18 19 20 21 22 23 24 25 26 27 28 29 30 31 32 33 34 35 36 37 38 39 40 41 42 43 44 45 46 47 48 49 50
000
ASUS43 KOAX 221110
RWRNE

WEATHER ROUNDUP FOR NEBRASKA
NATIONAL WEATHER SERVICE OMAHA NE
600 AM CDT FRI SEP 22 2017

NOTES: SATELLITE DATA IS BEING USED TO AUGMENT CLOUD COVER ABOVE
       12000 FEET.
       "FAIR" INDICATES FEW OR NO CLOUDS BELOW 12,000 FEET WITH NO
       SIGNIFICANT WEATHER AND/OR OBSTRUCTIONS TO VISIBILITY.


NEZ001>004-019>022-054>056-221200-
NEBRASKA PANHANDLE

CITY           SKY/WX    TMP DP  RH WIND       PRES   REMARKS
SCOTTSBLUFF    CLOUDY    48  40  73 W3        29.77R
ALLIANCE       CLEAR     47  41  80 NW12      29.73R
CHADRON        CLOUDY    49  39  68 N3        29.76R
GORDON         FAIR      48  40  74 NW13      29.71R
KIMBALL        CLOUDY    47  40  76 NW9       29.78S
SIDNEY         CLEAR     49  40  71 NW12      29.74R
$$

NEZ057>060-069>072-079>082-221200-
SOUTHWEST NEBRASKA

CITY           SKY/WX    TMP DP  RH WIND       PRES   REMARKS
NORTH PLATTE   CLEAR     74  63  68 S13G23    29.67S
IMPERIAL       CLEAR     65  45  48 S14       29.69R
LEXINGTON      CLEAR     76  65  69 S16       29.72R
MCCOOK         LGT RAIN  76  63  64 S21G32    29.70R
OGALLALA       CLEAR     61  45  55 SW5       29.69R
$$

NEZ005>010-023>029-035>040-094-221200-
NORTH CENTRAL NEBRASKA

CITY           SKY/WX    TMP DP  RH WIND       PRES   REMARKS
VALENTINE      CLEAR     61  55  81 NW5       29.63S
AINSWORTH      CLEAR     72  67  84 S18G24    29.64S
BROKEN BOW     CLEAR     75  66  73 S16       29.71R
O`NEILL        CLEAR     77  69  76 S23G35    29.67F
ORD            CLEAR     76  66  71 S20G29    29.69S
THEDFORD       CLEAR     74  64  72 S17G24    29.67R
$$

NEZ041-046>049-061>064-073>077-083>087-221200-
SOUTH CENTRAL NEBRASKA

CITY           SKY/WX    TMP DP  RH WIND       PRES   REMARKS
GRAND ISLAND   CLEAR     76  70  82 S20G25    29.76S
AURORA         CLEAR     76  70  82 S15G23    29.77F
HASTINGS       CLEAR     76  67  73 S13       29.78S
HEBRON         CLEAR     78  68  71 S12G18    29.81R
HOLDREGE       CLEAR     75  65  70 S18G24    29.74S
KEARNEY        CLEAR     76  68  76 S21G32    29.74S
YORK           CLEAR     77  70  78 S15G23    29.79S
$$

NEZ011>018-030>034-042>045-221200-
NORTHEAST NEBRASKA

CITY           SKY/WX    TMP DP  RH WIND       PRES   REMARKS
NORFOLK        CLEAR     76  70  82 S17G28    29.74F
ALBION         CLEAR     77  71  81 S16G23    29.74S
BLAIR          CLEAR     76  70  81 S14       29.83R
COLUMBUS       CLEAR     76  70  82 S15       29.77S
FREMONT        CLEAR     76  69  79 SE10G20   29.81S
TEKAMAH        CLEAR     76  70  82 S12       29.79S
WAYNE          CLEAR     74  72  91 S14G21    29.76S
$$

NEZ050>053-065>068-078-088>093-221200-
SOUTHEAST NEBRASKA

CITY           SKY/WX    TMP DP  RH WIND       PRES   REMARKS
LINCOLN        CLEAR     76  69  79 S14       29.81S
OMAHA EPPLEY   PTCLDY    78  70  76 S17       29.83S
BEATRICE       CLEAR     76  69  79 S9        29.84R
FALLS CITY     CLEAR     77  70  79 S13       29.87S
NEBRASKA CITY  PTCLDY    76  73  88 S13       29.86S
PLATTSMOUTH    PTCLDY    76  71  86 S13G18    29.85S
$$

NEZ044-045-051>053-067-221200-
OMAHA AREA

CITY           SKY/WX    TMP DP  RH WIND       PRES   REMARKS
OMAHA EPPLEY   PTCLDY    78  70  76 S17       29.83S
BLAIR          CLEAR     76  70  81 S14       29.83R
FREMONT        CLEAR     76  69  79 SE10G20   29.81S
MILLARD        CLEAR     79  72  78 SE12G17   29.82F
OFFUTT AFB     CLEAR     75  70  84 SE8       29.83S
PLATTSMOUTH    PTCLDY    76  71  86 S13G18    29.85S
WAHOO          FAIR      75  69  81 SE8       29.81S
$$




USA.gov is the U.S. government's official web portal to all federal, state and local government web resources and services.